Time,TemperatureF,DewpointF,PressureIn,WindDirection,WindDirectionDegrees,WindSpeedMPH,WindSpeedGustMPH,Humidity,HourlyPrecipIn,Conditions,Clouds,dailyrainin,SoftwareType,DateUTC
2013-04-23 00:01:00,50.7,50.7,29.84,ESE,103,0.0,0.0,100,0.00,,,0.00,Wunderground v.1.15,2013-04-23 07:01:00,
2013-04-23 00:06:00,50.7,50.7,29.84,ESE,103,0.0,1.0,100,0.00,,,0.00,Wunderground v.1.15,2013-04-23 07:06:00,
2013-04-23 00:11:00,50.7,50.7,29.84,ESE,103,0.0,1.0,100,0.00,,,0.00,Wunderground v.1.15,2013-04-23 07:11:00,
2013-04-23 00:16:00,50.5,50.5,29.84,ESE,103,0.0,1.0,100,0.00,,,0.00,Wunderground v.1.15,2013-04-23 07:16:00,
2013-04-23 00:21:00,50.5,50.5,29.84,ESE,103,0.0,1.0,100,0.00,,,0.00,Wunderground v.1.15,2013-04-23 07:21:00,
2013-04-23 00:26:00,50.5,50.5,29.84,ESE,103,2.0,3.0,100,0.00,,,0.00,Wunderground v.1.15,2013-04-23 07:26:00,
2013-04-23 00:31:00,50.5,50.5,29.84,ESE,103,1.0,3.0,100,0.00,,,0.00,Wunderground v.1.15,2013-04-23 07:31:00,
2013-04-23 00:36:00,50.5,50.5,29.84,ESE,103,0.0,3.0,100,0.00,,,0.00,Wunderground v.1.15,2013-04-23 07:36:00,
2013-04-23 00:41:00,50.5,50.5,29.84,ESE,103,0.0,2.0,100,0.00,,,0.00,Wunderground v.1.15,2013-04-23 07:41:00,
2013-04-23 00:46:00,50.5,50.5,29.84,ESE,103,0.0,2.0,100,0.00,,,0.00,Wunderground v.1.15,2013-04-23 07:46:00,
2013-04-23 00:51:00,50.4,50.4,29.84,ESE,103,0.0,0.0,100,0.00,,,0.00,Wunderground v.1.15,2013-04-23 07:51:00,
2013-04-23 00:56:00,50.4,50.4,29.84,ESE,103,0.0,1.0,100,0.00,,,0.00,Wunderground v.1.15,2013-04-23 07:56:00,
2013-04-23 01:01:00,50.2,50.2,29.84,ESE,103,0.0,0.0,100,0.00,,,0.00,Wunderground v.1.15,2013-04-23 08:01:00,
2013-04-23 01:06:00,50.2,50.2,29.84,ESE,103,0.0,2.0,100,0.00,,,0.00,Wunderground v.1.15,2013-04-23 08:06:00,
2013-04-23 01:11:00,50.2,50.2,29.84,ESE,103,0.0,3.0,100,0.00,,,0.00,Wunderground v.1.15,2013-04-23 08:11:00,
2013-04-23 01:16:00,50.1,50.1,29.84,ESE,103,0.0,3.0,100,0.00,,,0.00,Wunderground v.1.15,2013-04-23 08:16:00,
2013-04-23 01:21:00,50.1,50.1,29.84,ESE,103,0.0,1.0,100,0.00,,,0.00,Wunderground v.1.15,2013-04-23 08:21:00,
2013-04-23 01:26:00,50.1,50.1,29.84,ESE,103,0.0,1.0,100,0.00,,,0.00,Wunderground v.1.15,2013-04-23 08:26:00,
2013-04-23 01:31:00,50.1,50.1,29.83,ESE,103,0.0,0.0,100,0.00,,,0.00,Wunderground v.1.15,2013-04-23 08:31:00,
2013-04-23 01:36:00,50.1,50.1,29.83,ESE,103,0.0,0.0,100,0.00,,,0.00,Wunderground v.1.15,2013-04-23 08:36:00,
2013-04-23 01:41:00,50.1,50.1,29.83,ESE,103,0.0,0.0,100,0.00,,,0.00,Wunderground v.1.15,2013-04-23 08:41:00,
2013-04-23 01:46:00,50.1,50.1,29.83,ESE,103,0.0,0.0,100,0.00,,,0.00,Wunderground v.1.15,2013-04-23 08:46:00,
2013-04-23 01:52:00,50.1,50.1,29.83,ESE,103,0.0,0.0,100,0.00,,,0.00,Wunderground v.1.15,2013-04-23 08:52:00,
2013-04-23 01:57:00,50.1,50.1,29.83,ESE,103,0.0,0.0,100,0.00,,,0.00,Wunderground v.1.15,2013-04-23 08:57:00,
2013-04-23 02:02:00,50.1,50.1,29.83,ESE,103,0.0,0.0,100,0.00,,,0.00,Wunderground v.1.15,2013-04-23 09:02:00,
2013-04-23 02:07:00,50.1,50.1,29.83,ESE,103,0.0,0.0,100,0.00,,,0.00,Wunderground v.1.15,2013-04-23 09:07:00,
2013-04-23 02:12:00,50.1,50.1,29.83,ESE,103,0.0,0.0,100,0.00,,,0.00,Wunderground v.1.15,2013-04-23 09:12:00,
2013-04-23 02:17:00,49.9,49.9,29.83,ESE,103,0.0,0.0,100,0.00,,,0.00,Wunderground v.1.15,2013-04-23 09:17:00,
2013-04-23 02:22:00,49.9,49.9,29.83,ESE,103,0.0,0.0,100,0.00,,,0.00,Wunderground v.1.15,2013-04-23 09:22:00,
2013-04-23 02:27:00,49.9,49.9,29.83,ESE,103,0.0,0.0,100,0.00,,,0.00,Wunderground v.1.15,2013-04-23 09:27:00,
2013-04-23 02:32:00,50.1,50.1,29.82,ESE,103,0.0,0.0,100,0.00,,,0.00,Wunderground v.1.15,2013-04-23 09:32:00,
2013-04-23 02:37:00,50.1,50.1,29.82,ESE,103,0.0,0.0,100,0.00,,,0.00,Wunderground v.1.15,2013-04-23 09:37:00,
2013-04-23 02:42:00,50.1,50.1,29.82,ESE,103,0.0,0.0,100,0.00,,,0.00,Wunderground v.1.15,2013-04-23 09:42:00,
2013-04-23 02:47:00,50.1,50.1,29.82,ESE,103,0.0,0.0,100,0.00,,,0.00,Wunderground v.1.15,2013-04-23 09:47:00,
2013-04-23 02:52:00,49.9,49.9,29.82,ESE,103,0.0,0.0,100,0.00,,,0.00,Wunderground v.1.15,2013-04-23 09:52:00,
2013-04-23 02:57:00,49.9,49.9,29.82,ESE,103,0.0,0.0,100,0.00,,,0.00,Wunderground v.1.15,2013-04-23 09:57:00,
2013-04-23 03:02:00,49.9,49.9,29.81,ESE,103,0.0,0.0,100,0.00,,,0.00,Wunderground v.1.15,2013-04-23 10:02:00,
2013-04-23 03:07:00,50.1,50.1,29.81,ESE,103,0.0,1.0,100,0.00,,,0.00,Wunderground v.1.15,2013-04-23 10:07:00,
2013-04-23 03:12:00,50.1,50.1,29.81,ESE,103,0.0,0.0,100,0.00,,,0.00,Wunderground v.1.15,2013-04-23 10:12:00,
2013-04-23 03:17:00,49.9,49.9,29.82,ESE,103,0.0,0.0,100,0.00,,,0.00,Wunderground v.1.15,2013-04-23 10:17:00,
2013-04-23 03:22:00,49.9,49.9,29.82,ESE,103,0.0,0.0,100,0.00,,,0.00,Wunderground v.1.15,2013-04-23 10:22:00,
2013-04-23 03:27:00,49.8,49.8,29.82,ESE,103,0.0,0.0,100,0.00,,,0.00,Wunderground v.1.15,2013-04-23 10:27:00,
2013-04-23 03:32:00,49.8,49.8,29.81,ESE,103,0.0,0.0,100,0.00,,,0.00,Wunderground v.1.15,2013-04-23 10:32:00,
2013-04-23 03:37:00,49.8,49.8,29.81,East,92,0.0,2.0,100,0.00,,,0.00,Wunderground v.1.15,2013-04-23 10:37:00,
2013-04-23 03:42:00,49.8,49.8,29.81,East,92,0.0,0.0,100,0.00,,,0.00,Wunderground v.1.15,2013-04-23 10:42:00,
2013-04-23 03:47:00,49.8,49.8,29.82,East,92,0.0,0.0,100,0.00,,,0.00,Wunderground v.1.15,2013-04-23 10:47:00,
2013-04-23 03:52:00,49.8,49.8,29.82,East,92,0.0,0.0,100,0.00,,,0.00,Wunderground v.1.15,2013-04-23 10:52:00,
2013-04-23 03:57:00,49.8,49.8,29.82,East,92,0.0,0.0,100,0.00,,,0.00,Wunderground v.1.15,2013-04-23 10:57:00,
2013-04-23 04:02:00,49.8,49.8,29.81,East,92,0.0,0.0,100,0.00,,,0.00,Wunderground v.1.15,2013-04-23 11:02:00,
2013-04-23 04:07:00,49.8,49.8,29.81,East,92,0.0,1.0,100,0.00,,,0.00,Wunderground v.1.15,2013-04-23 11:07:00,
2013-04-23 04:12:00,49.8,49.8,29.81,East,92,3.0,3.0,100,0.00,,,0.00,Wunderground v.1.15,2013-04-23 11:12:00,
2013-04-23 04:17:00,49.8,49.8,29.81,ESE,102,0.0,4.0,100,0.00,,,0.00,Wunderground v.1.15,2013-04-23 11:17:00,
2013-04-23 04:22:00,49.6,49.6,29.81,ESE,102,0.0,1.0,100,0.00,,,0.00,Wunderground v.1.15,2013-04-23 11:22:00,
2013-04-23 04:27:00,49.6,49.6,29.81,ESE,102,0.0,1.0,100,0.00,,,0.00,Wunderground v.1.15,2013-04-23 11:27:00,
2013-04-23 04:32:00,49.6,49.6,29.81,ESE,102,0.0,0.0,100,0.00,,,0.00,Wunderground v.1.15,2013-04-23 11:32:00,
2013-04-23 04:37:00,49.8,49.8,29.81,ESE,102,0.0,0.0,100,0.00,,,0.00,Wunderground v.1.15,2013-04-23 11:37:00,
2013-04-23 04:42:00,49.8,49.8,29.81,ESE,102,0.0,1.0,100,0.00,,,0.00,Wunderground v.1.15,2013-04-23 11:42:00,
2013-04-23 04:47:00,49.8,49.8,29.81,ESE,102,0.0,1.0,100,0.00,,,0.00,Wunderground v.1.15,2013-04-23 11:47:00,
2013-04-23 04:52:00,49.8,49.8,29.81,East,89,0.0,1.0,100,0.00,,,0.00,Wunderground v.1.15,2013-04-23 11:52:00,
2013-04-23 04:57:00,49.8,49.8,29.81,East,89,0.0,1.0,100,0.00,,,0.00,Wunderground v.1.15,2013-04-23 11:57:00,
2013-04-23 05:02:00,49.8,49.8,29.82,East,89,0.0,0.0,100,0.00,,,0.00,Wunderground v.1.15,2013-04-23 12:02:00,
2013-04-23 05:07:00,49.8,49.8,29.82,East,89,1.0,1.0,100,0.00,,,0.00,Wunderground v.1.15,2013-04-23 12:07:00,
2013-04-23 05:12:00,49.8,49.8,29.82,East,89,0.0,2.0,100,0.00,,,0.00,Wunderground v.1.15,2013-04-23 12:12:00,
2013-04-23 05:17:00,49.8,49.8,29.82,East,89,0.0,2.0,100,0.00,,,0.00,Wunderground v.1.15,2013-04-23 12:17:00,
2013-04-23 05:22:00,49.8,49.8,29.82,East,89,0.0,0.0,100,0.00,,,0.00,Wunderground v.1.15,2013-04-23 12:22:00,
2013-04-23 05:27:00,49.9,49.9,29.82,East,89,0.0,0.0,100,0.00,,,0.00,Wunderground v.1.15,2013-04-23 12:27:00,
2013-04-23 05:32:00,49.9,49.9,29.83,East,89,1.0,2.0,100,0.00,,,0.00,Wunderground v.1.15,2013-04-23 12:32:00,
2013-04-23 05:37:00,49.8,49.8,29.83,East,89,0.0,2.0,100,0.00,,,0.00,Wunderground v.1.15,2013-04-23 12:37:00,
2013-04-23 05:42:00,49.8,49.8,29.83,East,89,0.0,0.0,100,0.00,,,0.00,Wunderground v.1.15,2013-04-23 12:42:00,
2013-04-23 05:47:00,49.8,49.8,29.84,East,89,0.0,1.0,100,0.00,,,0.00,Wunderground v.1.15,2013-04-23 12:47:00,
2013-04-23 05:52:00,49.9,49.9,29.84,East,86,0.0,0.0,100,0.00,,,0.00,Wunderground v.1.15,2013-04-23 12:52:00,
2013-04-23 05:57:00,49.9,49.9,29.84,East,86,0.0,0.0,100,0.00,,,0.00,Wunderground v.1.15,2013-04-23 12:57:00,
2013-04-23 06:02:00,49.9,49.9,29.84,East,86,0.0,0.0,100,0.00,,,0.00,Wunderground v.1.15,2013-04-23 13:02:00,
2013-04-23 06:07:00,49.9,49.9,29.84,East,86,0.0,2.0,100,0.00,,,0.00,Wunderground v.1.15,2013-04-23 13:07:00,
2013-04-23 06:12:00,49.9,49.9,29.84,East,86,0.0,1.0,100,0.00,,,0.00,Wunderground v.1.15,2013-04-23 13:12:00,
2013-04-23 06:17:00,49.9,49.9,29.85,East,86,1.0,2.0,100,0.00,,,0.00,Wunderground v.1.15,2013-04-23 13:17:00,
2013-04-23 06:22:00,49.8,49.8,29.85,East,86,1.0,1.0,100,0.00,,,0.00,Wunderground v.1.15,2013-04-23 13:22:00,
2013-04-23 06:27:00,49.8,49.8,29.85,East,86,0.0,2.0,100,0.00,,,0.00,Wunderground v.1.15,2013-04-23 13:27:00,
2013-04-23 06:32:00,49.8,49.8,29.86,East,86,0.0,1.0,100,0.00,,,0.00,Wunderground v.1.15,2013-04-23 13:32:00,
2013-04-23 06:37:00,49.8,49.8,29.86,ESE,110,0.0,3.0,100,0.00,,,0.00,Wunderground v.1.15,2013-04-23 13:37:00,
2013-04-23 06:42:00,49.8,49.8,29.86,ESE,106,0.0,1.0,100,0.00,,,0.00,Wunderground v.1.15,2013-04-23 13:42:00,
2013-04-23 06:47:00,49.9,49.9,29.86,ESE,106,0.0,1.0,100,0.00,,,0.00,Wunderground v.1.15,2013-04-23 13:47:00,
2013-04-23 06:52:00,49.9,49.9,29.86,ESE,106,0.0,1.0,100,0.00,,,0.00,Wunderground v.1.15,2013-04-23 13:52:00,
2013-04-23 06:57:00,49.9,49.9,29.86,ESE,106,0.0,1.0,100,0.00,,,0.00,Wunderground v.1.15,2013-04-23 13:57:00,
2013-04-23 07:02:00,49.9,49.9,29.86,ESE,106,0.0,1.0,100,0.00,,,0.00,Wunderground v.1.15,2013-04-23 14:02:00,
2013-04-23 07:07:00,49.9,49.9,29.86,ESE,114,0.0,3.0,100,0.00,,,0.00,Wunderground v.1.15,2013-04-23 14:07:00,
2013-04-23 07:12:00,49.9,49.9,29.86,ESE,113,0.0,3.0,100,0.00,,,0.00,Wunderground v.1.15,2013-04-23 14:12:00,
2013-04-23 07:17:00,49.8,49.8,29.87,East,101,0.0,5.0,100,0.00,,,0.00,Wunderground v.1.15,2013-04-23 14:17:00,
2013-04-23 07:22:00,49.8,49.8,29.87,ESE,116,0.0,4.0,100,0.00,,,0.00,Wunderground v.1.15,2013-04-23 14:22:00,
2013-04-23 07:27:00,49.9,49.9,29.87,East,101,0.0,4.0,100,0.00,,,0.00,Wunderground v.1.15,2013-04-23 14:27:00,
2013-04-23 07:32:00,49.9,49.9,29.88,East,101,0.0,2.0,100,0.00,,,0.00,Wunderground v.1.15,2013-04-23 14:32:00,
2013-04-23 07:37:00,50.1,50.1,29.88,East,101,0.0,2.0,100,0.00,,,0.00,Wunderground v.1.15,2013-04-23 14:37:00,
2013-04-23 07:42:00,50.1,50.1,29.88,East,101,2.0,2.0,100,0.00,,,0.00,Wunderground v.1.15,2013-04-23 14:42:00,
2013-04-23 07:47:00,50.1,50.1,29.89,East,101,0.0,2.0,100,0.00,,,0.00,Wunderground v.1.15,2013-04-23 14:47:00,
2013-04-23 07:52:00,50.2,50.2,29.89,East,101,0.0,1.0,100,0.00,,,0.00,Wunderground v.1.15,2013-04-23 14:52:00,
2013-04-23 07:57:00,50.2,50.2,29.89,East,91,2.0,3.0,100,0.00,,,0.00,Wunderground v.1.15,2013-04-23 14:57:00,
2013-04-23 08:02:00,50.2,50.2,29.89,East,96,2.0,3.0,100,0.00,,,0.00,Wunderground v.1.15,2013-04-23 15:02:00,
2013-04-23 08:07:00,50.2,50.2,29.89,East,96,0.0,3.0,100,0.00,,,0.00,Wunderground v.1.15,2013-04-23 15:07:00,
2013-04-23 08:12:00,50.4,50.4,29.89,East,96,0.0,1.0,100,0.00,,,0.00,Wunderground v.1.15,2013-04-23 15:12:00,
2013-04-23 08:17:00,50.4,50.4,29.89,East,96,0.0,1.0,100,0.00,,,0.00,Wunderground v.1.15,2013-04-23 15:17:00,
2013-04-23 08:22:00,50.4,50.4,29.89,East,96,0.0,0.0,100,0.00,,,0.00,Wunderground v.1.15,2013-04-23 15:22:00,
2013-04-23 08:27:00,50.4,50.4,29.89,East,96,1.0,2.0,100,0.00,,,0.01,Wunderground v.1.15,2013-04-23 15:27:00,
2013-04-23 08:32:00,50.4,50.4,29.90,East,96,0.0,2.0,100,0.00,,,0.01,Wunderground v.1.15,2013-04-23 15:32:00,
2013-04-23 08:37:00,50.5,50.5,29.90,East,96,0.0,2.0,100,0.00,,,0.01,Wunderground v.1.15,2013-04-23 15:37:00,
2013-04-23 08:42:00,50.5,50.5,29.90,East,96,0.0,0.0,100,0.00,,,0.01,Wunderground v.1.15,2013-04-23 15:42:00,
2013-04-23 08:47:00,50.8,50.8,29.90,East,96,0.0,0.0,100,0.00,,,0.01,Wunderground v.1.15,2013-04-23 15:47:00,
2013-04-23 08:52:00,51.0,51.0,29.90,East,96,0.0,0.0,100,0.00,,,0.01,Wunderground v.1.15,2013-04-23 15:52:00,
2013-04-23 08:57:00,51.0,51.0,29.90,East,96,0.0,0.0,100,0.00,,,0.01,Wunderground v.1.15,2013-04-23 15:57:00,
2013-04-23 09:02:00,51.3,51.3,29.90,East,96,0.0,1.0,100,0.00,,,0.01,Wunderground v.1.15,2013-04-23 16:02:00,
2013-04-23 09:07:00,51.3,51.3,29.90,East,96,0.0,1.0,100,0.00,,,0.01,Wunderground v.1.15,2013-04-23 16:07:00,
2013-04-23 09:12:00,51.3,51.3,29.90,East,96,0.0,0.0,100,0.00,,,0.01,Wunderground v.1.15,2013-04-23 16:12:00,
2013-04-23 09:17:00,51.4,51.4,29.90,East,96,0.0,0.0,100,0.00,,,0.01,Wunderground v.1.15,2013-04-23 16:17:00,
2013-04-23 09:22:00,51.6,51.6,29.90,East,96,0.0,0.0,100,0.00,,,0.01,Wunderground v.1.15,2013-04-23 16:22:00,
2013-04-23 09:27:00,51.7,51.7,29.90,East,96,0.0,0.0,100,0.00,,,0.01,Wunderground v.1.15,2013-04-23 16:27:00,
2013-04-23 09:32:00,51.9,51.9,29.90,East,96,0.0,0.0,100,0.00,,,0.01,Wunderground v.1.15,2013-04-23 16:32:00,
2013-04-23 09:37:00,52.0,52.0,29.90,East,96,0.0,2.0,100,0.00,,,0.01,Wunderground v.1.15,2013-04-23 16:37:00,
2013-04-23 09:42:00,52.2,52.2,29.90,East,96,0.0,0.0,100,0.00,,,0.01,Wunderground v.1.15,2013-04-23 16:42:00,
2013-04-23 09:47:00,52.2,52.2,29.90,East,96,0.0,1.0,100,0.00,,,0.01,Wunderground v.1.15,2013-04-23 16:47:00,
2013-04-23 09:52:00,52.5,52.5,29.90,East,96,0.0,1.0,100,0.00,,,0.01,Wunderground v.1.15,2013-04-23 16:52:00,
2013-04-23 09:57:00,52.5,52.5,29.90,East,96,0.0,1.0,100,0.00,,,0.01,Wunderground v.1.15,2013-04-23 16:57:00,
2013-04-23 10:02:00,52.3,52.3,29.91,East,94,0.0,2.0,100,0.00,,,0.01,Wunderground v.1.15,2013-04-23 17:02:00,
2013-04-23 10:07:00,52.6,52.6,29.91,East,94,0.0,2.0,100,0.00,,,0.01,Wunderground v.1.15,2013-04-23 17:07:00,
2013-04-23 10:12:00,52.6,52.6,29.91,East,94,0.0,1.0,100,0.00,,,0.01,Wunderground v.1.15,2013-04-23 17:12:00,
2013-04-23 10:17:00,52.9,52.9,29.91,East,94,0.0,1.0,100,0.00,,,0.01,Wunderground v.1.15,2013-04-23 17:17:00,
2013-04-23 10:22:00,52.9,52.9,29.91,ESE,103,0.0,3.0,100,0.00,,,0.01,Wunderground v.1.15,2013-04-23 17:22:00,
2013-04-23 10:27:00,53.5,53.5,29.91,East,84,0.0,3.0,100,0.00,,,0.01,Wunderground v.1.15,2013-04-23 17:27:00,
2013-04-23 10:32:00,53.5,53.5,29.91,East,100,1.0,2.0,100,0.00,,,0.01,Wunderground v.1.15,2013-04-23 17:32:00,
2013-04-23 10:37:00,53.5,53.5,29.91,ESE,119,1.0,3.0,100,0.00,,,0.01,Wunderground v.1.15,2013-04-23 17:37:00,
2013-04-23 10:42:00,53.6,53.6,29.91,ESE,119,0.0,4.0,100,0.00,,,0.01,Wunderground v.1.15,2013-04-23 17:42:00,
2013-04-23 10:47:00,53.9,53.9,29.91,ESE,103,2.0,4.0,100,0.00,,,0.01,Wunderground v.1.15,2013-04-23 17:47:00,
2013-04-23 10:52:00,54.1,54.1,29.91,SE,124,0.0,4.0,100,0.00,,,0.01,Wunderground v.1.15,2013-04-23 17:52:00,
2013-04-23 10:57:00,54.5,54.5,29.91,East,101,1.0,4.0,100,0.00,,,0.01,Wunderground v.1.15,2013-04-23 17:57:00,
2013-04-23 11:02:00,54.8,54.5,29.91,East,101,0.0,1.0,99,0.00,,,0.01,Wunderground v.1.15,2013-04-23 18:02:00,
2013-04-23 11:07:00,55.4,55.1,29.91,East,101,0.0,1.0,99,0.00,,,0.01,Wunderground v.1.15,2013-04-23 18:07:00,
2013-04-23 11:12:00,55.9,55.3,29.91,East,101,0.0,0.0,98,0.00,,,0.01,Wunderground v.1.15,2013-04-23 18:12:00,
2013-04-23 11:17:00,56.0,54.9,29.91,East,101,1.0,1.0,96,0.00,,,0.01,Wunderground v.1.15,2013-04-23 18:17:00,
2013-04-23 11:22:00,56.0,54.3,29.91,ESE,102,0.0,3.0,94,0.00,,,0.01,Wunderground v.1.15,2013-04-23 18:22:00,
2013-04-23 11:27:00,56.5,54.5,29.91,ESE,102,0.0,3.0,93,0.00,,,0.01,Wunderground v.1.15,2013-04-23 18:27:00,
2013-04-23 11:33:00,56.5,53.9,29.90,East,92,0.0,4.0,91,0.00,,,0.01,Wunderground v.1.15,2013-04-23 18:33:00,
2013-04-23 11:38:00,57.0,54.7,29.90,ESE,116,0.0,4.0,92,0.00,,,0.01,Wunderground v.1.15,2013-04-23 18:38:00,
2013-04-23 11:43:00,57.8,54.6,29.90,ESE,110,2.0,4.0,89,0.00,,,0.01,Wunderground v.1.15,2013-04-23 18:43:00,
2013-04-23 11:48:00,57.6,54.1,29.90,NE,44,1.0,4.0,88,0.00,,,0.01,Wunderground v.1.15,2013-04-23 18:48:00,
2013-04-23 11:53:00,57.8,53.6,29.90,West,259,0.0,6.0,86,0.00,,,0.01,Wunderground v.1.15,2013-04-23 18:53:00,
2013-04-23 11:58:00,58.1,53.9,29.90,SW,214,2.0,6.0,86,0.00,,,0.01,Wunderground v.1.15,2013-04-23 18:58:00,
2013-04-23 12:03:00,58.9,54.7,29.89,East,96,1.0,4.0,86,0.00,,,0.01,Wunderground v.1.15,2013-04-23 19:03:00,
2013-04-23 12:08:00,59.6,54.1,29.89,SE,131,0.0,4.0,82,0.00,,,0.01,Wunderground v.1.15,2013-04-23 19:08:00,
2013-04-23 12:13:00,59.8,54.3,29.89,SE,130,5.0,5.0,82,0.00,,,0.01,Wunderground v.1.15,2013-04-23 19:13:00,
2013-04-23 12:18:00,59.6,54.1,29.89,NNE,30,1.0,5.0,82,0.00,,,0.01,Wunderground v.1.15,2013-04-23 19:18:00,
2013-04-23 12:23:00,60.1,54.2,29.89,WSW,240,1.0,4.0,81,0.00,,,0.01,Wunderground v.1.15,2013-04-23 19:23:00,
2013-04-23 12:28:00,60.7,54.1,29.89,East,89,3.0,4.0,79,0.00,,,0.01,Wunderground v.1.15,2013-04-23 19:28:00,
2013-04-23 12:33:00,60.9,54.3,29.88,North,11,1.0,3.0,79,0.00,,,0.01,Wunderground v.1.15,2013-04-23 19:33:00,
2013-04-23 12:38:00,60.7,53.8,29.88,ENE,77,3.0,5.0,78,0.00,,,0.01,Wunderground v.1.15,2013-04-23 19:38:00,
2013-04-23 12:43:00,61.2,54.3,29.88,NE,46,1.0,6.0,78,0.00,,,0.01,Wunderground v.1.15,2013-04-23 19:43:00,
2013-04-23 12:48:00,61.5,54.2,29.87,North,359,3.0,6.0,77,0.00,,,0.01,Wunderground v.1.15,2013-04-23 19:48:00,
2013-04-23 12:53:00,61.3,53.7,29.87,North,359,0.0,3.0,76,0.00,,,0.01,Wunderground v.1.15,2013-04-23 19:53:00,
2013-04-23 12:58:00,60.7,53.4,29.87,NE,39,2.0,9.0,77,0.00,,,0.01,Wunderground v.1.15,2013-04-23 19:58:00,
2013-04-23 13:03:00,60.5,53.3,29.87,ENE,66,0.0,3.0,77,0.00,,,0.01,Wunderground v.1.15,2013-04-23 20:03:00,
2013-04-23 13:08:00,60.5,54.0,29.87,SE,129,1.0,4.0,79,0.00,,,0.01,Wunderground v.1.15,2013-04-23 20:08:00,
2013-04-23 13:13:00,60.5,53.3,29.87,West,276,9.0,9.0,77,0.00,,,0.01,Wunderground v.1.15,2013-04-23 20:13:00,
2013-04-23 13:18:00,60.2,53.3,29.87,NE,42,0.0,9.0,78,0.00,,,0.01,Wunderground v.1.15,2013-04-23 20:18:00,
2013-04-23 13:23:00,59.9,53.0,29.87,NNW,329,2.0,4.0,78,0.00,,,0.01,Wunderground v.1.15,2013-04-23 20:23:00,
2013-04-23 13:28:00,59.2,52.7,29.87,ENE,71,1.0,7.0,79,0.00,,,0.01,Wunderground v.1.15,2013-04-23 20:28:00,
2013-04-23 13:33:00,59.5,53.3,29.87,SE,139,3.0,5.0,80,0.00,,,0.01,Wunderground v.1.15,2013-04-23 20:33:00,
2013-04-23 13:38:00,60.2,54.0,29.87,NNE,14,0.0,5.0,80,0.00,,,0.01,Wunderground v.1.15,2013-04-23 20:38:00,
2013-04-23 13:43:00,60.7,54.1,29.87,North,0,0.0,4.0,79,0.00,,,0.01,Wunderground v.1.15,2013-04-23 20:43:00,
2013-04-23 13:48:00,61.5,54.2,29.86,NNE,15,0.0,4.0,77,0.00,,,0.01,Wunderground v.1.15,2013-04-23 20:48:00,
2013-04-23 13:53:00,61.6,53.6,29.86,WNW,298,1.0,6.0,75,0.00,,,0.01,Wunderground v.1.15,2013-04-23 20:53:00,
2013-04-23 13:58:00,60.9,54.0,29.86,NNE,16,0.0,6.0,78,0.00,,,0.01,Wunderground v.1.15,2013-04-23 20:58:00,
2013-04-23 14:03:00,60.4,53.2,29.87,East,84,2.0,5.0,77,0.00,,,0.01,Wunderground v.1.15,2013-04-23 21:03:00,
2013-04-23 14:08:00,59.8,52.9,29.87,NW,323,3.0,7.0,78,0.00,,,0.01,Wunderground v.1.15,2013-04-23 21:08:00,
2013-04-23 14:13:00,59.2,53.0,29.87,WNW,297,3.0,5.0,80,0.00,,,0.01,Wunderground v.1.15,2013-04-23 21:13:00,
2013-04-23 14:18:00,59.5,53.0,29.87,SE,124,3.0,5.0,79,0.00,,,0.01,Wunderground v.1.15,2013-04-23 21:18:00,
2013-04-23 14:23:00,60.2,53.7,29.87,NNW,340,1.0,5.0,79,0.00,,,0.01,Wunderground v.1.15,2013-04-23 21:23:00,
2013-04-23 14:28:00,60.9,54.3,29.87,NW,316,0.0,5.0,79,0.00,,,0.01,Wunderground v.1.15,2013-04-23 21:28:00,
2013-04-23 14:33:00,60.9,53.3,29.87,ESE,103,1.0,6.0,76,0.00,,,0.01,Wunderground v.1.15,2013-04-23 21:33:00,
2013-04-23 14:38:00,60.9,53.6,29.87,NNW,342,1.0,6.0,77,0.00,,,0.01,Wunderground v.1.15,2013-04-23 21:38:00,
2013-04-23 14:43:00,60.9,53.6,29.87,North,359,4.0,4.0,77,0.00,,,0.01,Wunderground v.1.15,2013-04-23 21:43:00,
2013-04-23 14:48:00,61.0,53.7,29.86,North,1,0.0,4.0,77,0.00,,,0.01,Wunderground v.1.15,2013-04-23 21:48:00,
2013-04-23 14:53:00,60.7,53.1,29.86,ESE,108,1.0,5.0,76,0.00,,,0.01,Wunderground v.1.15,2013-04-23 21:53:00,
2013-04-23 14:58:00,60.5,52.9,29.86,ESE,105,2.0,6.0,76,0.00,,,0.01,Wunderground v.1.15,2013-04-23 21:58:00,
2013-04-23 15:03:00,60.5,53.3,29.86,SE,144,0.0,6.0,77,0.00,,,0.01,Wunderground v.1.15,2013-04-23 22:03:00,
2013-04-23 15:08:00,60.1,52.9,29.86,NE,46,0.0,9.0,77,0.00,,,0.01,Wunderground v.1.15,2013-04-23 22:08:00,
2013-04-23 15:13:00,60.1,53.6,29.86,East,94,1.0,4.0,79,0.00,,,0.01,Wunderground v.1.15,2013-04-23 22:13:00,
2013-04-23 15:18:00,60.4,53.5,29.86,NNW,341,0.0,5.0,78,0.00,,,0.01,Wunderground v.1.15,2013-04-23 22:18:00,
2013-04-23 15:23:00,60.4,53.5,29.86,WNW,303,0.0,4.0,78,0.00,,,0.01,Wunderground v.1.15,2013-04-23 22:23:00,
2013-04-23 15:28:00,60.5,53.3,29.86,ENE,68,0.0,5.0,77,0.00,,,0.01,Wunderground v.1.15,2013-04-23 22:28:00,
2013-04-23 15:33:00,60.1,52.9,29.85,ESE,118,3.0,4.0,77,0.00,,,0.01,Wunderground v.1.15,2013-04-23 22:33:00,
2013-04-23 15:38:00,59.9,53.4,29.85,ENE,78,1.0,4.0,79,0.00,,,0.01,Wunderground v.1.15,2013-04-23 22:38:00,
2013-04-23 15:43:00,59.6,53.4,29.85,North,350,3.0,4.0,80,0.00,,,0.01,Wunderground v.1.15,2013-04-23 22:43:00,
2013-04-23 15:48:00,59.5,53.0,29.85,SSE,167,0.0,6.0,79,0.00,,,0.01,Wunderground v.1.15,2013-04-23 22:48:00,
2013-04-23 15:53:00,59.6,53.4,29.85,WSW,237,0.0,3.0,80,0.00,,,0.01,Wunderground v.1.15,2013-04-23 22:53:00,
2013-04-23 15:58:00,59.8,53.3,29.85,North,9,1.0,6.0,79,0.00,,,0.01,Wunderground v.1.15,2013-04-23 22:58:00,
2013-04-23 16:03:00,59.6,53.1,29.85,NE,44,0.0,4.0,79,0.00,,,0.01,Wunderground v.1.15,2013-04-23 23:03:00,
2013-04-23 16:08:00,59.9,53.4,29.85,North,1,1.0,4.0,79,0.00,,,0.01,Wunderground v.1.15,2013-04-23 23:08:00,
2013-04-23 16:13:00,60.1,53.2,29.85,NNE,20,2.0,4.0,78,0.00,,,0.01,Wunderground v.1.15,2013-04-23 23:13:00,
2013-04-23 16:18:00,59.8,53.3,29.85,North,11,1.0,4.0,79,0.00,,,0.01,Wunderground v.1.15,2013-04-23 23:18:00,
2013-04-23 16:23:00,59.6,53.1,29.85,WSW,251,4.0,5.0,79,0.00,,,0.01,Wunderground v.1.15,2013-04-23 23:23:00,
2013-04-23 16:28:00,59.9,53.4,29.85,South,169,0.0,5.0,79,0.00,,,0.01,Wunderground v.1.15,2013-04-23 23:28:00,
2013-04-23 16:33:00,59.8,53.3,29.84,SSE,158,0.0,3.0,79,0.00,,,0.01,Wunderground v.1.15,2013-04-23 23:33:00,
2013-04-23 16:38:00,59.3,52.8,29.84,North,351,3.0,4.0,79,0.00,,,0.01,Wunderground v.1.15,2013-04-23 23:38:00,
2013-04-23 16:43:00,58.9,53.1,29.84,NNW,338,0.0,4.0,81,0.00,,,0.01,Wunderground v.1.15,2013-04-23 23:43:00,
2013-04-23 16:48:00,58.6,53.1,29.84,NNW,327,0.0,9.0,82,0.00,,,0.01,Wunderground v.1.15,2013-04-23 23:48:00,
2013-04-23 16:53:00,58.9,53.1,29.84,WSW,256,2.0,3.0,81,0.00,,,0.01,Wunderground v.1.15,2013-04-23 23:53:00,
2013-04-23 16:58:00,58.7,52.9,29.84,NW,314,1.0,3.0,81,0.00,,,0.01,Wunderground v.1.15,2013-04-23 23:58:00,
2013-04-23 17:03:00,58.6,52.8,29.84,SE,124,2.0,2.0,81,0.00,,,0.01,Wunderground v.1.15,2013-04-24 00:03:00,
2013-04-23 17:08:00,58.1,53.0,29.84,SE,132,1.0,6.0,83,0.00,,,0.01,Wunderground v.1.15,2013-04-24 00:08:00,
2013-04-23 17:13:00,57.6,52.8,29.84,NNE,28,2.0,3.0,84,0.00,,,0.01,Wunderground v.1.15,2013-04-24 00:13:00,
2013-04-23 17:18:00,57.3,52.8,29.84,WNW,295,1.0,4.0,85,0.00,,,0.01,Wunderground v.1.15,2013-04-24 00:18:00,
2013-04-23 17:23:00,57.0,52.5,29.84,NNW,329,0.0,3.0,85,0.00,,,0.01,Wunderground v.1.15,2013-04-24 00:23:00,
2013-04-23 17:28:00,56.6,52.5,29.84,North,356,2.0,4.0,86,0.00,,,0.01,Wunderground v.1.15,2013-04-24 00:28:00,
2013-04-23 17:33:00,56.3,52.5,29.84,North,0,0.0,2.0,87,0.00,,,0.01,Wunderground v.1.15,2013-04-24 00:33:00,
2013-04-23 17:38:00,56.3,52.5,29.84,North,3,1.0,3.0,87,0.00,,,0.01,Wunderground v.1.15,2013-04-24 00:38:00,
2013-04-23 17:43:00,56.3,52.5,29.84,ESE,103,2.0,2.0,87,0.00,,,0.01,Wunderground v.1.15,2013-04-24 00:43:00,
2013-04-23 17:48:00,56.3,52.5,29.84,NNW,332,0.0,3.0,87,0.00,,,0.01,Wunderground v.1.15,2013-04-24 00:48:00,
2013-04-23 17:53:00,56.3,52.8,29.84,SE,128,0.0,2.0,88,0.00,,,0.01,Wunderground v.1.15,2013-04-24 00:53:00,
2013-04-23 17:58:00,56.3,52.8,29.84,ESE,109,1.0,2.0,88,0.00,,,0.01,Wunderground v.1.15,2013-04-24 00:58:00,
2013-04-23 18:03:00,56.0,52.5,29.85,North,1,0.0,3.0,88,0.00,,,0.01,Wunderground v.1.15,2013-04-24 01:03:00,
2013-04-23 18:08:00,56.0,52.5,29.85,North,359,2.0,4.0,88,0.00,,,0.01,Wunderground v.1.15,2013-04-24 01:08:00,
2013-04-23 18:13:00,55.7,52.2,29.85,North,0,0.0,3.0,88,0.00,,,0.01,Wunderground v.1.15,2013-04-24 01:13:00,
2013-04-23 18:18:00,55.6,52.4,29.85,North,354,0.0,5.0,89,0.00,,,0.01,Wunderground v.1.15,2013-04-24 01:18:00,
2013-04-23 18:23:00,55.6,52.4,29.85,North,354,0.0,2.0,89,0.00,,,0.01,Wunderground v.1.15,2013-04-24 01:23:00,
2013-04-23 18:28:00,55.7,52.5,29.85,West,281,0.0,2.0,89,0.00,,,0.01,Wunderground v.1.15,2013-04-24 01:28:00,
2013-04-23 18:33:00,55.7,52.2,29.85,NNW,335,0.0,2.0,88,0.00,,,0.01,Wunderground v.1.15,2013-04-24 01:33:00,
2013-04-23 18:38:00,55.6,52.4,29.85,North,349,0.0,3.0,89,0.00,,,0.01,Wunderground v.1.15,2013-04-24 01:38:00,
2013-04-23 18:43:00,55.4,52.2,29.85,North,358,2.0,3.0,89,0.00,,,0.01,Wunderground v.1.15,2013-04-24 01:43:00,
2013-04-23 18:48:00,55.3,52.1,29.85,North,358,0.0,3.0,89,0.00,,,0.01,Wunderground v.1.15,2013-04-24 01:48:00,
2013-04-23 18:53:00,55.1,51.9,29.85,North,357,0.0,2.0,89,0.00,,,0.01,Wunderground v.1.15,2013-04-24 01:53:00,
2013-04-23 18:58:00,55.1,51.9,29.85,North,1,0.0,2.0,89,0.00,,,0.01,Wunderground v.1.15,2013-04-24 01:58:00,
2013-04-23 19:03:00,55.0,51.8,29.85,SE,124,0.0,3.0,89,0.00,,,0.01,Wunderground v.1.15,2013-04-24 02:03:00,
2013-04-23 19:08:00,54.8,51.9,29.85,NNW,340,1.0,4.0,90,0.00,,,0.01,Wunderground v.1.15,2013-04-24 02:08:00,
2013-04-23 19:13:00,54.8,51.9,29.85,NNW,340,0.0,1.0,90,0.00,,,0.01,Wunderground v.1.15,2013-04-24 02:13:00,
2013-04-23 19:18:00,54.7,51.8,29.85,NNW,340,0.0,3.0,90,0.00,,,0.01,Wunderground v.1.15,2013-04-24 02:18:00,
2013-04-23 19:23:00,54.5,51.6,29.85,NNW,337,0.0,3.0,90,0.00,,,0.01,Wunderground v.1.15,2013-04-24 02:23:00,
2013-04-23 19:28:00,54.4,51.8,29.85,NNW,337,0.0,3.0,91,0.00,,,0.01,Wunderground v.1.15,2013-04-24 02:28:00,
2013-04-23 19:34:00,54.2,51.6,29.85,NNW,337,0.0,0.0,91,0.00,,,0.01,Wunderground v.1.15,2013-04-24 02:34:00,
2013-04-23 19:39:00,54.2,51.6,29.85,NNW,337,0.0,2.0,91,0.00,,,0.01,Wunderground v.1.15,2013-04-24 02:39:00,
2013-04-23 19:44:00,54.2,51.6,29.85,NNW,331,0.0,0.0,91,0.00,,,0.01,Wunderground v.1.15,2013-04-24 02:44:00,
2013-04-23 19:49:00,54.2,51.6,29.85,NNW,331,0.0,0.0,91,0.00,,,0.01,Wunderground v.1.15,2013-04-24 02:49:00,
2013-04-23 19:55:00,54.2,51.9,29.85,NNW,331,0.0,0.0,92,0.00,,,0.01,Wunderground v.1.15,2013-04-24 02:55:00,
2013-04-23 20:00:00,54.1,51.8,29.85,NNW,331,0.0,0.0,92,0.00,,,0.01,Wunderground v.1.15,2013-04-24 03:00:00,
2013-04-23 20:06:00,54.1,51.8,29.85,North,0,0.0,4.0,92,0.00,,,0.01,Wunderground v.1.15,2013-04-24 03:06:00,
2013-04-23 20:11:00,53.9,51.6,29.85,North,0,0.0,0.0,92,0.00,,,0.01,Wunderground v.1.15,2013-04-24 03:11:00,
2013-04-23 20:16:00,53.8,51.5,29.85,North,0,0.0,0.0,92,0.00,,,0.01,Wunderground v.1.15,2013-04-24 03:16:00,
2013-04-23 20:21:00,53.6,51.3,29.85,North,0,0.0,0.0,92,0.00,,,0.01,Wunderground v.1.15,2013-04-24 03:21:00,
2013-04-23 20:26:00,53.6,51.3,29.85,North,0,0.0,0.0,92,0.00,,,0.01,Wunderground v.1.15,2013-04-24 03:26:00,
2013-04-23 20:32:00,53.6,51.6,29.85,North,0,0.0,0.0,93,0.00,,,0.01,Wunderground v.1.15,2013-04-24 03:32:00,
2013-04-23 20:37:00,53.5,51.5,29.85,North,354,0.0,2.0,93,0.00,,,0.01,Wunderground v.1.15,2013-04-24 03:37:00,
2013-04-23 20:42:00,53.5,51.5,29.85,North,354,0.0,0.0,93,0.00,,,0.01,Wunderground v.1.15,2013-04-24 03:42:00,
2013-04-23 20:47:00,53.3,51.3,29.86,NW,320,0.0,1.0,93,0.00,,,0.01,Wunderground v.1.15,2013-04-24 03:47:00,
2013-04-23 20:52:00,53.2,51.2,29.86,NW,326,0.0,0.0,93,0.00,,,0.01,Wunderground v.1.15,2013-04-24 03:52:00,
2013-04-23 20:57:00,53.2,51.5,29.86,NW,326,0.0,0.0,94,0.00,,,0.01,Wunderground v.1.15,2013-04-24 03:57:00,
2013-04-23 21:01:00,53.2,51.5,29.86,NNW,327,0.0,0.0,94,0.00,,,0.01,Wunderground v.1.15,2013-04-24 04:01:00,
2013-04-23 21:06:00,53.1,51.4,29.86,NNW,327,0.0,0.0,94,0.00,,,0.01,Wunderground v.1.15,2013-04-24 04:06:00,
2013-04-23 21:11:00,53.1,51.4,29.86,NNW,327,0.0,0.0,94,0.00,,,0.01,Wunderground v.1.15,2013-04-24 04:11:00,
2013-04-23 21:16:00,52.9,51.2,29.86,NNW,327,0.0,0.0,94,0.00,,,0.01,Wunderground v.1.15,2013-04-24 04:16:00,
2013-04-23 21:21:00,52.9,51.2,29.86,NNW,327,0.0,0.0,94,0.00,,,0.01,Wunderground v.1.15,2013-04-24 04:21:00,
2013-04-23 21:26:00,52.9,51.2,29.86,NNW,327,0.0,1.0,94,0.00,,,0.01,Wunderground v.1.15,2013-04-24 04:26:00,
2013-04-23 21:31:00,52.8,51.1,29.86,NNW,327,0.0,0.0,94,0.00,,,0.01,Wunderground v.1.15,2013-04-24 04:31:00,
2013-04-23 21:36:00,52.6,51.2,29.86,NNW,327,0.0,0.0,95,0.00,,,0.01,Wunderground v.1.15,2013-04-24 04:36:00,
2013-04-23 21:41:00,52.6,51.2,29.86,NNW,327,0.0,1.0,95,0.00,,,0.01,Wunderground v.1.15,2013-04-24 04:41:00,
2013-04-23 21:46:00,52.5,51.1,29.86,NNW,347,0.0,1.0,95,0.00,,,0.01,Wunderground v.1.15,2013-04-24 04:46:00,
2013-04-23 21:51:00,52.5,51.1,29.86,NNW,347,1.0,1.0,95,0.00,,,0.01,Wunderground v.1.15,2013-04-24 04:51:00,
2013-04-23 21:56:00,52.3,50.9,29.86,NNW,340,0.0,2.0,95,0.00,,,0.01,Wunderground v.1.15,2013-04-24 04:56:00,
2013-04-23 22:01:00,52.3,51.2,29.86,NNW,340,0.0,0.0,96,0.00,,,0.01,Wunderground v.1.15,2013-04-24 05:01:00,
2013-04-23 22:06:00,52.3,51.2,29.86,NNW,340,0.0,0.0,96,0.00,,,0.01,Wunderground v.1.15,2013-04-24 05:06:00,
2013-04-23 22:11:00,52.3,51.2,29.86,NNW,340,0.0,0.0,96,0.00,,,0.01,Wunderground v.1.15,2013-04-24 05:11:00,
2013-04-23 22:16:00,52.3,51.2,29.86,NNW,340,0.0,0.0,96,0.00,,,0.01,Wunderground v.1.15,2013-04-24 05:16:00,
2013-04-23 22:21:00,52.3,51.2,29.86,NNW,340,0.0,0.0,96,0.00,,,0.01,Wunderground v.1.15,2013-04-24 05:21:00,
2013-04-23 22:26:00,52.2,51.1,29.86,NNW,340,0.0,0.0,96,0.00,,,0.01,Wunderground v.1.15,2013-04-24 05:26:00,
2013-04-23 22:31:00,52.2,51.1,29.86,NNW,340,0.0,0.0,96,0.00,,,0.01,Wunderground v.1.15,2013-04-24 05:31:00,
2013-04-23 22:36:00,52.2,51.1,29.86,NNW,340,0.0,1.0,96,0.00,,,0.01,Wunderground v.1.15,2013-04-24 05:36:00,
2013-04-23 22:41:00,52.2,51.1,29.86,NNW,340,0.0,0.0,96,0.00,,,0.01,Wunderground v.1.15,2013-04-24 05:41:00,
2013-04-23 22:46:00,52.2,51.1,29.85,NNW,340,0.0,0.0,96,0.00,,,0.01,Wunderground v.1.15,2013-04-24 05:46:00,
2013-04-23 22:51:00,52.0,50.9,29.85,NNW,340,0.0,0.0,96,0.00,,,0.01,Wunderground v.1.15,2013-04-24 05:51:00,
2013-04-23 22:56:00,52.0,51.2,29.85,NNW,340,0.0,0.0,97,0.00,,,0.01,Wunderground v.1.15,2013-04-24 05:56:00,
2013-04-23 23:01:00,52.0,51.2,29.85,NNW,340,0.0,0.0,97,0.00,,,0.01,Wunderground v.1.15,2013-04-24 06:01:00,
2013-04-23 23:06:00,52.0,51.2,29.85,NNW,340,0.0,0.0,97,0.00,,,0.01,Wunderground v.1.15,2013-04-24 06:06:00,
2013-04-23 23:11:00,52.0,51.2,29.85,NNW,340,0.0,1.0,97,0.00,,,0.01,Wunderground v.1.15,2013-04-24 06:11:00,
2013-04-23 23:16:00,52.0,51.2,29.84,NNW,340,0.0,1.0,97,0.00,,,0.01,Wunderground v.1.15,2013-04-24 06:16:00,
2013-04-23 23:21:00,52.0,51.2,29.84,NNW,340,0.0,0.0,97,0.00,,,0.01,Wunderground v.1.15,2013-04-24 06:21:00,
2013-04-23 23:26:00,52.0,51.2,29.84,NNW,340,0.0,1.0,97,0.00,,,0.01,Wunderground v.1.15,2013-04-24 06:26:00,
2013-04-23 23:31:00,52.0,51.2,29.84,NNW,340,0.0,0.0,97,0.00,,,0.01,Wunderground v.1.15,2013-04-24 06:31:00,
2013-04-23 23:36:00,52.0,51.2,29.84,NNW,340,0.0,0.0,97,0.00,,,0.01,Wunderground v.1.15,2013-04-24 06:36:00,
2013-04-23 23:41:00,51.9,51.1,29.84,NNW,340,0.0,0.0,97,0.00,,,0.01,Wunderground v.1.15,2013-04-24 06:41:00,
2013-04-23 23:46:00,51.9,51.1,29.84,NNW,340,0.0,0.0,97,0.00,,,0.01,Wunderground v.1.15,2013-04-24 06:46:00,
2013-04-23 23:51:00,51.9,51.1,29.84,NNW,340,0.0,0.0,97,0.00,,,0.01,Wunderground v.1.15,2013-04-24 06:51:00,
2013-04-23 23:56:00,51.7,50.9,29.84,NNW,340,0.0,1.0,97,0.00,,,0.01,Wunderground v.1.15,2013-04-24 06:56:00,